TimeCDT,TemperatureF,Dew PointF,Humidity,Sea Level PressureIn,VisibilityMPH,Wind Direction,Wind SpeedMPH,Gust SpeedMPH,PrecipitationIn,Events,Conditions,WindDirDegrees,DateUTC
12:53 AM,72.0,55.9,57,29.83,10.0,South,9.2,-,N/A,,Clear,170,2013-07-05 05:53:00
1:53 AM,71.1,55.9,59,29.83,10.0,South,11.5,-,N/A,,Clear,170,2013-07-05 06:53:00
2:53 AM,70.0,55.9,61,29.83,10.0,SSE,11.5,-,N/A,,Clear,160,2013-07-05 07:53:00
3:53 AM,69.1,55.0,61,29.83,10.0,South,9.2,-,N/A,,Partly Cloudy,170,2013-07-05 08:53:00
4:53 AM,70.0,55.0,59,29.82,10.0,SSE,11.5,-,N/A,,Clear,160,2013-07-05 09:53:00
5:53 AM,73.0,55.0,53,29.81,10.0,South,10.4,19.6,N/A,,Overcast,180,2013-07-05 10:53:00
6:53 AM,69.1,59.0,70,29.81,10.0,SSE,12.7,-,0.05,,Overcast,160,2013-07-05 11:53:00
7:53 AM,68.0,61.0,78,29.83,10.0,SSE,6.9,-,N/A,,Overcast,160,2013-07-05 12:53:00
8:53 AM,70.0,61.0,73,29.82,10.0,South,11.5,-,N/A,,Mostly Cloudy,170,2013-07-05 13:53:00
9:53 AM,75.0,62.1,64,29.81,10.0,South,17.3,21.9,N/A,,Partly Cloudy,180,2013-07-05 14:53:00
10:53 AM,75.9,61.0,60,29.82,10.0,South,17.3,-,N/A,,Clear,170,2013-07-05 15:53:00
11:53 AM,81.0,62.1,52,29.80,10.0,South,15.0,-,N/A,,Clear,190,2013-07-05 16:53:00
12:53 PM,84.0,63.0,49,29.79,10.0,South,20.7,26.5,N/A,,Clear,170,2013-07-05 17:53:00
1:53 PM,87.1,63.0,44,29.78,10.0,SSW,13.8,-,N/A,,Clear,200,2013-07-05 18:53:00
2:53 PM,89.1,63.0,42,29.77,10.0,South,19.6,25.3,N/A,,Clear,190,2013-07-05 19:53:00
3:53 PM,91.0,60.1,35,29.76,10.0,SSW,19.6,27.6,N/A,,Clear,200,2013-07-05 20:53:00
4:53 PM,91.0,62.1,38,29.75,10.0,South,20.7,27.6,N/A,,Clear,190,2013-07-05 21:53:00
5:53 PM,90.0,60.1,37,29.75,10.0,SSW,18.4,25.3,N/A,,Clear,200,2013-07-05 22:53:00
6:53 PM,89.1,59.0,36,29.75,10.0,SSW,13.8,21.9,N/A,,Clear,200,2013-07-05 23:53:00
7:53 PM,86.0,60.1,41,29.77,10.0,SSW,15.0,-,N/A,,Clear,210,2013-07-06 00:53:00
8:53 PM,81.0,62.1,52,29.78,10.0,South,10.4,-,N/A,,Clear,190,2013-07-06 01:53:00
9:53 PM,79.0,62.1,56,29.79,10.0,South,11.5,-,N/A,,Clear,180,2013-07-06 02:53:00
10:53 PM,78.1,62.1,58,29.81,10.0,SSW,10.4,-,N/A,,Clear,200,2013-07-06 03:53:00
11:53 PM,77.0,62.1,60,29.81,10.0,South,10.4,-,N/A,,Mostly Cloudy,190,2013-07-06 04:53:00